RH
66 76 78 59 37 41 40 42 41 41 44 69 90 94 98 100 99 97 98 99 100 100 100 100 97 82 58 51 48 52 54 61 84 32 87 90 99 89 93 98 99 98 94
59 66 87 85 41 43 44 43 47 47 47 47 63 86 95 99 100 100 98 100 100 100 100 99 98 97 74 80 65 62 76 79 86 51 65 69 69 53 51 64 99 100 99
79 84 78 77 43 51 67 70 72 62 52 53 70 81 87 89 91 97 100 100 100 100 100 99 98 99 97 100 100 100 95 89 90 82 46 62 55 54 63 79 76 94 89
58 74 91 93 96 96 97 95 95 94 90 84 84 72 58 58 88 93 93 96 100 100 100 100 100 100 100 100 99 100 100 100 99 78 64 59 59 54 74 93 82 86 95
72 86 94 96 96 95 98 99 100 100 99 97 95 94 93 91 86 88 86 90 96 100 99 100 100 100 100 100 99 99 100 100 100 89 77 63 66 85 91 76 94 82 90
96 99 99 98 99 100 100 100 100 100 100 100 99 96 94 91 86 79 59 64 88 96 100 99 100 100 100 98 98 99 100 100 100 100 96 74 73 92 89 96 90 88 93
84 86 84 83 85 88 89 92 97 100 100 98 93 95 98 99 98 96 81 63 89 96 100 100 100 100 99 98 99 98 100 100 99 99 99 75 84 91 99 93 79 94 91
62 57 57 60 62 63 67 70 79 81 85 97 98 99 100 94 89 99 99 81 94 96 99 100 99 99 99 100 99 100 100 100 98 100 98 87 90 100 95 93 90 91 96
62 65 67 70 70 71 74 80 83 85 87 88 90 88 99 98 98 99 99 100 94 98 100 100 100 100 99 98 99 100 100 87 88 89 85 84 79 80 91 97 86 100 97
71 74 74 74 77 76 76 82 82 81 78 83 89 97 90 98 96 100 99 98 97 97 100 100 100 99 99 100 100 100 100 82 94 88 73 74 77 78 80 90 98 100 100
65 66 66 70 76 70 74 79 79 78 78 82 90 92 94 91 97 97 98 98 97 98 99 98 99 99 100 100 100 100 99 91 82 77 74 76 79 81 76 80 82 100 100
59 58 62 68 68 67 78 79 81 81 82 84 87 86 77 89 90 87 98 98 98 97 95 95 98 99 100 100 100 100 100 97 91 89 74 74 71 69 69 71 77 99 100
58 55 57 64 67 76 77 81 83 84 86 85 80 86 82 77 90 93 98 98 97 96 91 93 97 98 100 100 100 100 100 100 99 92 90 84 82 76 73 69 74 97 100
61 61 62 64 73 77 80 83 84 89 91 89 91 82 87 94 82 86 100 98 96 95 92 97 97 98 98 100 100 100 100 100 99 98 100 84 81 80 74 78 91 87 97
69 70 70 73 78 81 81 86 94 98 100 100 90 94 94 93 91 98 98 97 96 94 98 96 95 96 95 96 100 100 100 100 100 100 100 97 88 87 87 80 94 100 100
84 80 83 89 89 88 89 88 94 100 100 99 99 99 97 99 97 96 97 96 96 96 96 88 92 94 95 93 96 99 100 100 100 100 100 100 98 97 97 87 98 100 100
98 98 97 96 96 97 97 96 94 86 98 100 98 100 99 99 98 96 97 96 96 96 96 94 94 93 95 96 94 100 99 99 100 100 100 100 100 100 100 100 100 100 100
100 100 100 100 100 96 98 97 95 95 92 92 94 95 98 97 95 96 97 97 96 95 96 96 96 96 98 94 95 99 99 97 98 100 100 100 100 100 100 100 100 98 99
99 100 100 100 100 99 96 96 96 95 92 91 93 94 94 97 96 95 96 97 96 95 96 95 97 96 97 98 100 100 96 93 95 99 100 100 100 100 100 99 100 100 100
100 100 100 100 98 100 100 100 98 98 94 95 93 96 98 95 100 95 96 96 96 96 95 94 94 94 100 100 100 99 99 98 100 100 98 100 100 100 100 100 99 100 100
100 100 100 100 100 100 100 100 100 100 98 98 97 96 99 97 99 99 97 94 95 95 96 96 95 95 96 98 100 100 84 56 99 92 99 99 100 100 100 100 98 99 100
100 100 100 100 100 100 100 100 100 100 100 99 98 98 96 93 100 100 100 97 95 96 96 94 94 95 98 100 100 99 87 54 70 68 44 58 95 100 96 99 100 98 100
100 100 100 100 100 100 100 100 100 100 100 100 100 100 100 99 100 100 97 93 100 100 99 98 99 100 100 100 100 100 84 91 66 39 35 38 48 86 95 100 100 99 98
100 100 100 100 100 100 100 100 100 100 100 100 100 100 100 100 100 100 100 100 100 100 100 100 100 100 99 100 99 100 99 62 47 42 38 35 38 58 85 96 100 100 99
98 100 100 100 100 100 100 100 100 100 100 100 100 100 100 100 100 100 100 100 100 100 100 100 100 100 100 97 99 93 82 68 58 50 42 40 33 46 79 99 100 100 99
60 90 100 100 100 100 100 100 100 100 100 100 100 100 100 100 100 100 100 100 100 96 98 100 100 96 96 94 100 100 91 82 68 56 49 43 37 38 92 100 100 100 100
Wind_Speed
15 26 33 20 21 22 25 26 27 27 26 24 22 22 23 23 22 22 22 21 22 21 21 22 22 22 25 26 26 25 24 23 29 46 29 29 32 34 32 29 30 32 38
23 34 33 28 24 25 26 26 26 27 26 26 24 23 24 25 24 24 24 22 22 23 23 23 23 21 21 22 24 24 23 24 27 43 40 44 39 36 35 35 32 34 39
34 37 30 26 25 28 27 26 25 25 27 26 24 24 23 24 25 26 25 25 24 24 24 23 22 21 22 21 21 22 23 25 29 36 48 42 40 35 33 35 34 41 43
18 20 23 23 22 24 25 25 25 25 25 26 26 28 30 29 26 25 25 26 26 25 24 24 23 23 23 21 21 21 22 25 28 33 40 42 39 35 34 34 38 39 42
17 17 17 19 22 24 26 27 28 28 29 28 28 28 29 28 27 26 25 24 25 25 25 25 24 24 25 23 22 23 22 24 28 32 38 38 38 36 35 37 40 42 41
16 16 17 19 20 21 22 23 24 26 28 29 31 33 33 32 32 36 38 32 26 27 27 25 24 23 26 26 24 25 26 29 31 31 34 36 38 37 38 38 40 43 47
20 20 21 22 23 24 25 27 28 29 30 34 36 35 36 35 37 39 40 37 28 28 27 26 24 22 24 24 25 26 29 31 29 30 32 33 37 34 37 41 40 43 42
20 22 22 23 24 25 26 27 28 29 32 34 35 35 37 40 38 42 43 40 30 28 29 27 27 24 24 26 29 29 28 26 26 26 29 31 32 34 34 34 38 39 40
18 19 21 22 24 25 25 26 27 28 30 33 36 38 38 43 40 38 42 35 30 29 27 26 26 24 25 26 28 30 26 26 23 21 23 26 27 28 27 29 32 31 38
20 22 22 23 25 27 27 29 29 29 32 32 35 37 39 40 41 38 44 36 30 29 26 23 25 26 26 26 27 25 25 23 20 23 24 22 22 22 21 21 25 29 30
21 23 24 25 27 26 28 29 30 31 32 34 35 37 38 39 40 36 41 41 32 27 28 25 24 24 22 22 20 22 23 21 22 22 21 22 21 20 20 19 19 23 23
24 25 26 26 27 28 29 29 30 30 32 34 36 39 41 41 39 36 35 42 36 25 26 24 21 20 18 16 18 17 17 18 18 20 20 20 21 21 20 19 16 17 18
26 26 27 27 28 28 29 31 32 30 32 33 35 38 43 46 40 33 33 42 33 23 25 23 21 18 17 17 13 14 14 14 16 17 17 18 19 21 21 19 16 15 16
26 27 28 29 30 29 30 29 30 30 33 31 33 38 42 45 40 33 34 35 21 21 21 21 18 17 15 14 11 10 11 13 14 14 17 17 17 19 20 18 18 15 15
26 27 28 29 30 32 31 31 31 29 28 33 33 33 38 41 38 28 24 16 15 15 15 15 15 13 10 9 8 8 8 9 10 12 14 16 17 18 19 19 15 13 12
26 27 28 30 30 31 34 40 31 31 30 30 27 28 33 33 33 22 18 16 14 16 15 14 14 13 11 9 8 7 6 8 10 11 13 14 17 18 19 19 14 12 10
25 28 29 29 32 33 33 35 40 39 32 28 28 26 27 32 25 15 15 13 14 15 16 14 14 12 10 6 6 6 8 9 10 12 13 13 15 16 17 19 16 12 10
26 27 28 30 33 34 34 34 35 35 36 35 30 28 24 29 22 17 4 11 10 8 7 5 6 5 4 6 4 6 7 8 10 13 13 14 14 16 17 18 17 12 10
26 27 29 31 31 32 32 32 31 31 30 30 28 25 23 25 24 15 10 7 3 6 6 3 3 2 1 2 3 6 5 5 8 11 13 14 15 16 15 16 17 12 10
25 28 30 30 31 31 30 30 30 30 29 27 26 24 24 25 21 21 15 12 6 1 2 5 5 3 1 3 3 7 8 9 10 9 12 15 15 14 17 14 16 15 9
26 27 29 29 29 29 29 29 29 28 27 25 24 22 23 20 18 16 15 11 10 5 2 2 2 3 2 4 5 6 9 10 10 10 11 14 16 17 16 15 14 14 13
24 26 28 29 29 29 28 27 26 27 25 24 23 21 21 19 18 17 14 14 12 11 9 7 7 6 7 7 7 10 10 12 12 12 14 15 15 17 18 16 14 12 13
23 27 28 28 28 27 27 25 26 25 26 23 21 21 18 17 17 17 16 14 12 11 10 11 11 11 11 11 11 10 12 12 14 16 16 18 18 16 18 18 16 12 12
24 25 27 27 27 27 27 27 26 25 24 23 20 19 18 17 17 16 15 14 13 12 11 11 13 13 13 14 14 13 12 16 18 18 18 17 18 18 17 18 17 11 10
24 25 26 26 27 28 29 27 26 25 23 22 21 20 19 18 17 16 14 13 14 13 12 11 12 13 13 14 15 18 17 17 18 18 19 18 18 19 17 16 16 15 11
26 25 25 26 27 27 28 28 27 25 24 23 21 20 19 17 17 17 16 14 12 14 12 13 13 15 15 14 14 18 18 17 17 18 19 19 18 18 15 14 15 14 12
Wind_Direction
298 315 309 289 277 287 296 304 309 308 304 293 284 280 277 274 271 270 272 272 272 272 270 271 273 271 273 272 273 274 273 271 271 282 279 280 279 288 289 285 280 276 274
297 296 298 290 279 288 295 303 308 307 304 297 290 279 278 275 272 270 270 269 269 271 272 269 275 278 276 275 274 273 271 271 273 280 287 288 291 294 297 294 286 283 284
287 291 295 287 279 285 287 288 292 298 301 297 291 285 279 276 274 272 270 270 272 272 271 271 274 271 273 270 272 269 272 273 273 277 284 289 294 297 298 291 287 301 293
294 297 294 287 287 288 291 291 288 287 284 284 283 286 289 288 280 274 272 272 271 269 265 267 269 268 271 269 271 271 271 272 275 279 283 290 294 299 296 292 290 302 304
318 315 309 300 296 295 294 292 289 285 283 283 281 280 281 281 280 278 278 277 274 271 269 272 272 268 264 271 269 269 272 273 277 279 282 286 290 296 294 299 294 302 304
339 334 328 322 317 313 310 307 302 295 289 286 281 278 276 275 274 278 288 283 274 270 271 272 271 270 272 276 272 271 270 271 273 274 279 283 288 291 298 297 299 305 304
335 335 332 328 324 321 316 312 309 306 302 298 294 286 278 274 273 273 277 282 271 268 265 268 271 271 271 273 274 272 274 275 271 274 276 282 290 293 297 299 301 302 297
334 332 332 330 328 325 321 317 312 308 304 301 296 290 285 283 278 269 268 273 266 263 260 262 269 266 269 268 272 272 272 268 270 274 276 283 286 289 290 293 294 298 301
342 340 336 333 330 327 324 322 318 314 309 307 304 294 292 289 286 281 263 255 257 260 257 260 262 259 261 269 271 272 273 274 279 283 285 290 291 293 295 294 294 299 307
338 334 332 329 327 325 323 322 321 317 314 314 311 306 297 292 288 282 264 249 251 254 254 256 259 257 266 269 267 267 271 279 284 284 290 293 298 299 294 286 288 297 308
335 332 330 328 325 322 319 319 318 316 315 309 311 316 314 303 295 281 269 250 245 251 254 253 257 266 267 269 266 261 267 280 284 295 299 303 306 310 307 300 286 290 304
334 331 327 324 323 320 318 318 317 315 313 316 313 315 318 320 299 290 279 254 245 244 253 256 260 264 272 272 273 269 268 279 289 296 301 308 315 319 318 312 300 286 300
333 328 326 323 323 319 320 319 318 318 317 316 320 324 324 324 313 292 276 257 244 246 244 251 255 258 268 277 277 266 272 280 287 297 307 312 320 323 325 320 312 295 299
329 327 326 325 322 321 318 317 316 316 316 314 314 322 324 329 324 299 278 247 234 243 240 246 250 252 259 271 276 271 277 282 289 301 311 320 326 332 334 330 327 318 311
328 326 324 322 324 320 317 316 316 313 313 314 312 315 320 328 327 300 252 223 230 227 226 241 248 247 254 270 285 280 285 297 303 309 321 328 333 339 343 340 332 327 322
325 324 324 324 324 321 320 318 317 316 317 317 314 309 316 320 324 301 272 237 231 223 234 242 243 242 244 260 287 316 319 323 323 324 334 337 338 341 344 347 335 326 319
322 324 323 324 322 320 320 318 319 321 320 321 323 320 321 322 341 303 264 239 228 229 234 237 236 242 226 241 278 306 327 341 346 342 339 342 344 343 345 350 343 336 327
324 323 323 319 320 320 318 319 317 318 318 321 324 326 325 322 335 15 326 238 233 216 210 202 185 203 242 251 264 298 309 333 345 346 348 348 351 347 349 347 347 335 328
326 324 321 320 320 319 320 318 318 318 316 316 321 326 326 325 328 347 35 40 175 178 194 161 86 67 31 348 334 307 307 325 339 339 344 351 353 348 348 346 344 338 325
327 324 322 323 324 321 321 320 319 319 318 316 320 324 328 330 330 332 339 355 17 36 200 191 171 162 32 13 347 337 3 355 346 354 343 341 348 354 348 345 343 338 323
328 327 326 327 323 322 321 319 320 321 319 319 316 312 325 328 327 325 324 323 331 314 338 281 285 269 308 330 326 331 346 350 346 351 343 340 338 348 349 347 337 337 329
330 329 328 327 325 324 321 321 319 320 318 316 316 315 314 311 317 321 318 316 302 298 299 292 275 278 288 294 302 311 327 333 339 336 337 337 338 338 343 343 339 336 330
334 329 329 329 327 325 325 324 320 319 318 315 312 312 316 315 311 312 310 310 312 303 293 275 277 277 277 283 284 292 304 310 314 321 325 326 331 334 334 336 338 332 327
333 331 331 330 330 331 328 324 323 319 317 315 310 310 308 309 312 313 310 302 301 301 296 289 286 278 269 264 272 277 288 292 300 306 309 313 318 325 324 325 327 322 315
338 336 335 334 335 333 330 327 324 320 317 315 310 305 298 299 302 302 308 309 296 295 291 287 281 276 273 265 261 267 277 283 289 295 298 302 305 311 317 315 321 322 307
344 342 341 339 336 335 332 329 326 322 318 314 309 306 303 298 292 291 294 293 302 272 280 286 277 272 274 263 261 265 269 276 282 288 292 295 297 299 306 301 306 307 298